Location: Doux
(49.5045°N, 4.4321°E)
Time: 20:31:36
(UTC+00:00)

Cosmos 1242 Rocket - Pass Details

Date: 23 May 2024
Orbit: 322 x 337 km, 81.1° (Epoch: 14 June)

Event Time Altitude Azimuth Distance (km) Brightness Sun altitude
Exits shadow 02:45:29 11° 246° (WSW) 1,297 4.2 -8.6°
Maximum altitude 02:47:29 19° 292° (WNW) 960 3.9 -8.4°
Drops below altitude 10° 02:49:42 10° 340° (NNW) 1,368 5.2 -8.1°
Sets 02:52:04 0° 359° (N) 2,225 6.7 -7.8°
